[[{"header":{"parameterUnit":"m.s-1","parameterCategory":1,"la1":30.2991,"la2":30.254,"lo1":-89.0895,"lo2":-89.0444,"dy":0.0017,"dx":0.0017,"nx":28,"ny":28,"refTime":"2025-11-11T03:00:00:Z","depth":0,"parameterNumber":2,"parameterNumberName":"U-component_of_WINDS"},"data":[0,0,0,0,0,0,0,0,0,0,0,0,0,0,0,0,0,0,0,0,0,0,0,0,0,0,0,0,0,0,0,0,0,0,0,0,0,0,0,0,0,0,0,0,0,0,0,0,0,0,0,0,0,0,0,0,0,0,-1.4001,-1.4001,0,-1.404,-1.4041,-1.4041,-1.3997,-1.3995,-1.3994,-1.3992,-1.4035,-1.4037,-1.404,0,0,0,0,0,0,0,0,0,0,0,0,0,-1.3887,-1.3889,-1.4001,-1.4001,-1.4002,-1.404,-1.4041,-1.4041,-1.3997,-1.3995,-1.3993,-1.3991,-1.4034,-1.4037,-1.404,0,0,0,0,0,0,0,0,0,0,0,0,0,-1.3933,-1.389,-1.4001,-1.3984,-1.3983,-1.404,-1.4041,-1.4041,-1.3998,-1.3995,-1.3993,-1.399,-1.4033,-1.4037,-1.4041,-1.4116,0,0,-1.4053,-1.4055,0,0,0,0,0,0,0,0,-1.393,-1.3937,-1.3986,-1.3986,-1.3984,-1.4011,-1.4016,-1.4067,-1.3998,-1.3992,-1.3992,-1.3989,-1.4029,-1.4033,-1.4046,-1.4118,-1.412,-1.4053,-1.4056,-1.4057,-1.4059,0,0,0,0,0,0,0,-1.3927,-1.3935,-1.4016,-1.3987,-1.3986,-1.3975,-1.3979,-1.4026,-1.4024,-1.3993,-1.3989,-1.3995,-1.4028,-1.4042,-1.4047,-1.4121,-1.4053,-1.4057,-1.4059,-1.4061,-1.4254,-1.4256,0,0,0,0,0,0,-1.3926,-1.3933,-1.4015,-1.4018,-1.395,-1.3979,-1.3983,-1.4005,-1.4024,-1.4024,-1.3997,-1.3992,-1.4037,-1.4042,-1.4048,-1.4136,-1.4057,-1.4061,-1.4064,-1.4251,-1.4254,-1.4257,0,0,0,0,0,0,-1.3923,-1.3933,-1.4014,-1.3974,-1.3984,-1.3984,-1.4009,-1.4007,-1.4022,-1.4027,-1.4026,-1.4012,-1.4035,-1.4042,-1.4099,-1.4137,-1.4063,-1.4067,-1.4248,-1.4252,-1.4256,-1.4314,0,0,0,0,0,0,-1.392,-1.3933,-1.3962,-1.3975,-1.3986,-1.4064,-1.4011,-1.401,-1.4028,-1.4023,-1.4041,-1.4041,-1.4033,-1.4093,-1.4103,-1.4141,-1.407,-1.4245,-1.425,-1.4255,-1.4309,-1.432,-1.4329,0,0,0,0,0,-1.3916,-1.3978,-1.3963,-1.3974,-1.4022,-1.4066,-1.4072,-1.4062,-1.4032,-1.4061,-1.4063,-1.4041,-1.4131,-1.4099,-1.411,-1.415,-1.4242,-1.4248,-1.4254,-1.4304,-1.4317,-1.4329,0,0,0,0,0,0,-1.397,-1.3979,-1.3964,-1.4031,-1.4048,-1.4059,-1.4095,-1.4076,-1.4103,-1.4097,-1.4083,-1.4087,-1.4147,-1.4154,-1.4118,-1.4223,-1.4182,-1.419,-1.4216,-1.4229,-1.4239,-1.4236,-1.4073,0,0,0,0,0,-1.3989,-1.4024,-1.403,-1.4089,-1.4098,-1.4095,-1.4114,-1.4104,-1.4121,-1.4129,-1.4136,-1.4154,-1.4186,-1.4208,-1.4238,-1.4309,-1.4312,-1.4342,-1.4352,-1.436,-1.4368,-1.4404,-1.4417,-1.4277,-1.4277,-1.4277,0,0,-1.4031,-1.404,-1.4063,-1.41,-1.4112,-1.4148,-1.4102,-1.4143,-1.4169,-1.4135,-1.4188,-1.4194,-1.4213,-1.4277,-1.4305,-1.4285,-1.4407,-1.4368,-1.4375,-1.4378,-1.4412,-1.4425,-1.4437,-1.4281,-1.4281,-1.428,0,0,-1.4123,-1.4134,-1.4183,-1.4196,-1.4214,-1.4211,-1.4223,-1.4236,-1.4238,-1.4291,-1.4265,-1.4296,-1.4353,-1.4367,-1.4381,-1.4477,-1.4456,-1.4487,-1.454,-1.4575,-1.4586,-1.4596,-1.4629,-1.4641,-1.4494,-1.4495,-1.4495,0,-1.4172,-1.4226,-1.4211,-1.4253,-1.427,-1.4239,-1.4288,-1.4301,-1.4329,-1.4341,-1.4317,-1.4386,-1.4397,-1.4462,-1.4485,-1.4498,-1.451,-1.4485,-1.4586,-1.4595,-1.4604,-1.4635,-1.4648,-1.4498,-1.4498,-1.4497,-1.4497,0,-1.4284,-1.4321,-1.4359,-1.4384,-1.4405,-1.4451,-1.4443,-1.4466,-1.4453,-1.4452,-1.4506,-1.4517,-1.4548,-1.4563,-1.4552,-1.4626,-1.4613,-1.4588,-1.4546,-1.4621,-1.465,-1.4662,-1.4503,-1.4502,-1.4501,-1.45,0,0,-1.4414,-1.4429,-1.4443,-1.4453,-1.447,-1.4498,-1.4541,-1.457,-1.4589,-1.4609,-1.4644,-1.4692,-1.4668,-1.4684,-1.4674,-1.4705,-1.4778,-1.4676,-1.4676,-1.4694,-1.4859,-1.4877,-1.4891,-1.4764,-1.4767,-1.4769,-1.4857,0,-1.4506,-1.458,-1.4568,-1.464,-1.4673,-1.4643,-1.4681,-1.4695,-1.4695,-1.4723,-1.4723,-1.4756,-1.4723,-1.4732,-1.4762,-1.4763,-1.4811,-1.4757,-1.4797,-1.4799,-1.4793,-1.4907,-1.4927,-1.501,-1.4868,-1.487,-1.4872,0,-1.4624,-1.4646,-1.4721,-1.473,-1.4743,-1.4777,-1.4802,-1.4829,-1.4844,-1.4841,-1.4858,-1.4842,-1.4884,-1.4842,-1.4899,-1.4863,-1.4878,-1.4881,-1.4884,-1.4887,-1.484,-1.4912,-1.5036,-1.5048,-1.489,-1.4888,-1.4887,0,-1.471,-1.4758,-1.4808,-1.4818,-1.4831,-1.4855,-1.4861,-1.4873,-1.489,-1.4912,-1.4923,-1.4949,-1.4964,-1.4984,-1.4975,-1.4945,-1.5034,-1.4991,-1.5033,-1.5033,-1.5053,-1.5052,-1.5181,-1.5064,-1.5064,-1.5064,-1.5064,0,-1.4814,-1.4861,-1.4847,-1.4878,-1.4929,-1.4913,-1.4964,-1.4967,-1.4977,-1.5008,-1.4984,-1.5014,-1.5,-1.5028,-1.5021,-1.5069,-1.5076,-1.5075,-1.5072,-1.5077,-1.5077,-1.5087,-1.508,-1.5067,-1.5066,-1.5066,-1.5065,0,-1.4918,-1.4911,-1.4964,-1.497,-1.4972,-1.501,-1.5015,-1.5044,-1.5041,-1.508,-1.5088,-1.5084,-1.5116,-1.5108,-1.5144,-1.5139,-1.5198,-1.5189,-1.5193,-1.5191,-1.5232,-1.5228,-1.5371,-1.5389,-1.5262,-1.5263,-1.5264,0,-1.4985,-1.502,-1.5029,-1.5047,-1.5055,-1.5085,-1.5102,-1.5088,-1.5106,-1.5124,-1.5151,-1.518,-1.5202,-1.5254,-1.5254,-1.5281,-1.5271,-1.532,-1.5275,-1.5278,-1.5271,-1.5268,-1.5271,-1.5328,-1.533,-1.5331,-1.5332,0,-1.5104,-1.5098,-1.5123,-1.5146,-1.5167,-1.5185,-1.5201,-1.5217,-1.5204,-1.5226,-1.5257,-1.5274,-1.5309,-1.5338,-1.5361,-1.5368,-1.5348,-1.5346,-1.5357,-1.5361,-1.5362,-1.5361,-1.5216,-1.5343,-1.5342,-1.5341,-1.534,-1.534,-1.5191,-1.522,-1.523,-1.5258,-1.5268,-1.5283,-1.5309,-1.5309,-1.5334,-1.536,-1.535,-1.5386,-1.5397,-1.5427,-1.5436,-1.5463,-1.5445,-1.5461,-1.5465,-1.5469,-1.5473,-1.5357,-1.5467,-1.5467,-1.5467,-1.5467,-1.5466,0,-1.5308,-1.5312,-1.5338,-1.536,-1.5381,-1.5359,-1.5375,-1.5395,-1.5426,-1.5438,-1.546,-1.5495,-1.5522,-1.5523,-1.5549,-1.557,-1.5561,-1.5577,-1.5575,-1.5577,-1.5489,-1.5476,-1.5584,-1.5584,-1.5584,-1.5584,-1.5584,-1.5584,-1.5371,-1.5418,-1.5412,-1.5463,-1.5467,-1.5501,-1.5511,-1.5524,-1.5534,-1.5573,-1.5595,-1.5596,-1.5603,-1.5628,-1.5652,-1.5651,-1.5661,-1.5681,-1.5677,-1.5595,-1.5583,-1.5572,-1.556,-1.5683,-1.5683,-1.5762,-1.5763,-1.5763]},{"header":{"parameterUnit":"m.s-1","parameterCategory":1,"la1":30.2991,"la2":30.254,"lo1":-89.0895,"lo2":-89.0444,"dy":0.0017,"dx":0.0017,"nx":28,"ny":28,"refTime":"2025-11-11T03:00:00:Z","depth":0,"parameterNumber":3,"parameterNumberName":"V-component_of_WINDS"},"data":[0,0,0,0,0,0,0,0,0,0,0,0,0,0,0,0,0,0,0,0,0,0,0,0,0,0,0,0,0,0,0,0,0,0,0,0,0,0,0,0,0,0,0,0,0,0,0,0,0,0,0,0,0,0,0,0,0,0,-7.1989,-7.199,0,-7.2119,-7.212,-7.2121,-7.1991,-7.1986,-7.1981,-7.1976,-7.2102,-7.211,-7.2118,0,0,0,0,0,0,0,0,0,0,0,0,0,-7.162,-7.1628,-7.1989,-7.199,-7.1992,-7.2118,-7.212,-7.2122,-7.1992,-7.1985,-7.1979,-7.1973,-7.2099,-7.2109,-7.2119,0,0,0,0,0,0,0,0,0,0,0,0,0,-7.1768,-7.163,-7.1988,-7.1942,-7.1939,-7.2118,-7.212,-7.2122,-7.1993,-7.1985,-7.1978,-7.197,-7.2096,-7.2108,-7.212,-7.2348,0,0,-7.2157,-7.2162,0,0,0,0,0,0,0,0,-7.176,-7.1782,-7.1947,-7.1946,-7.1943,-7.2031,-7.2036,-7.2198,-7.1995,-7.1973,-7.1976,-7.1967,-7.2084,-7.2097,-7.2138,-7.2354,-7.236,-7.2158,-7.2166,-7.2171,-7.2174,0,0,0,0,0,0,0,-7.175,-7.1776,-7.204,-7.195,-7.1947,-7.1913,-7.1925,-7.2066,-7.2069,-7.1974,-7.1965,-7.1982,-7.2081,-7.2126,-7.214,-7.2361,-7.2158,-7.2169,-7.2176,-7.2181,-7.277,-7.2778,0,0,0,0,0,0,-7.1746,-7.1768,-7.2036,-7.2044,-7.1831,-7.1926,-7.194,-7.201,-7.2068,-7.2069,-7.1989,-7.1976,-7.2109,-7.2126,-7.2144,-7.2414,-7.2171,-7.2182,-7.2189,-7.2762,-7.2772,-7.2781,0,0,0,0,0,0,-7.1738,-7.1771,-7.203,-7.1903,-7.1934,-7.194,-7.202,-7.2017,-7.2062,-7.2079,-7.2078,-7.2035,-7.2104,-7.2126,-7.2298,-7.2416,-7.2188,-7.2199,-7.2752,-7.2765,-7.2776,-7.2957,0,0,0,0,0,0,-7.1728,-7.1769,-7.1858,-7.1907,-7.1941,-7.2186,-7.2028,-7.2025,-7.2084,-7.2068,-7.2122,-7.2123,-7.21,-7.2281,-7.2311,-7.2429,-7.2208,-7.2741,-7.2758,-7.2772,-7.2941,-7.2974,-7.3003,0,0,0,0,0,-7.1716,-7.1902,-7.1863,-7.1896,-7.2053,-7.2193,-7.2213,-7.2184,-7.2094,-7.2182,-7.2193,-7.2121,-7.2399,-7.23,-7.2332,-7.2456,-7.2734,-7.2753,-7.2771,-7.2927,-7.2968,-7.3002,0,0,0,0,0,0,-7.1865,-7.1908,-7.1865,-7.2073,-7.2131,-7.2171,-7.2281,-7.2228,-7.2311,-7.2292,-7.2251,-7.2264,-7.2446,-7.2468,-7.2357,-7.2679,-7.2551,-7.2577,-7.2658,-7.2698,-7.2728,-7.2719,-7.2218,0,0,0,0,0,-7.1923,-7.2036,-7.2066,-7.2246,-7.2278,-7.2275,-7.2335,-7.2308,-7.2365,-7.2388,-7.2411,-7.2467,-7.2567,-7.2633,-7.2726,-7.2943,-7.2952,-7.3044,-7.3075,-7.3101,-7.3123,-7.3239,-7.328,-7.2842,-7.2842,-7.2842,0,0,-7.2042,-7.2079,-7.2153,-7.2277,-7.2319,-7.2435,-7.2296,-7.2424,-7.2509,-7.2406,-7.2571,-7.259,-7.265,-7.2845,-7.2933,-7.2869,-7.3246,-7.3125,-7.3145,-7.3154,-7.3262,-7.3304,-7.334,-7.2855,-7.2853,-7.2851,0,0,-7.2318,-7.2359,-7.2513,-7.2558,-7.2624,-7.262,-7.2658,-7.2706,-7.2716,-7.288,-7.2806,-7.2904,-7.3077,-7.3123,-7.3168,-7.3462,-7.3399,-7.3493,-7.3656,-7.3769,-7.3803,-7.3833,-7.3937,-7.3975,-7.3516,-7.3516,-7.3516,0,-7.2458,-7.2631,-7.2599,-7.2733,-7.279,-7.2704,-7.2859,-7.2903,-7.2995,-7.3035,-7.2963,-7.3178,-7.3212,-7.3416,-7.3488,-7.3528,-7.3568,-7.3487,-7.3801,-7.3831,-7.3859,-7.3957,-7.3997,-7.3527,-7.3526,-7.3525,-7.3524,0,-7.2799,-7.292,-7.3037,-7.313,-7.3199,-7.3343,-7.3331,-7.3404,-7.3371,-7.3375,-7.3542,-7.358,-7.3679,-7.3725,-7.3693,-7.3926,-7.3884,-7.3808,-7.3678,-7.3912,-7.4004,-7.4041,-7.3543,-7.3539,-7.3536,-7.3533,0,0,-7.3173,-7.3247,-7.329,-7.3331,-7.3397,-7.3489,-7.3627,-7.3726,-7.379,-7.3855,-7.3969,-7.4118,-7.4047,-7.4099,-7.4071,-7.4171,-7.44,-7.4081,-7.4082,-7.4139,-7.4656,-7.4713,-7.4758,-7.4358,-7.4365,-7.4371,-7.4651,0,-7.3451,-7.3695,-7.367,-7.3901,-7.4012,-7.3932,-7.4053,-7.4105,-7.4112,-7.4205,-7.4211,-7.4317,-7.4217,-7.4247,-7.4342,-7.4352,-7.4503,-7.4331,-7.4462,-7.4467,-7.445,-7.4806,-7.4867,-7.5129,-7.4687,-7.4693,-7.4697,0,-7.3808,-7.3889,-7.4132,-7.4181,-7.4226,-7.4336,-7.4423,-7.4514,-7.457,-7.4568,-7.4627,-7.4582,-7.4718,-7.4587,-7.4774,-7.4658,-7.471,-7.4723,-7.4732,-7.4743,-7.4596,-7.4826,-7.5212,-7.5252,-7.4753,-7.4749,-7.4745,0,-7.4056,-7.4225,-7.4393,-7.443,-7.4491,-7.4569,-7.4598,-7.4647,-7.4707,-7.4783,-7.4822,-7.4912,-7.4961,-7.5031,-7.501,-7.4917,-7.5202,-7.5069,-7.5202,-7.5203,-7.5266,-7.5262,-7.5666,-7.53,-7.53,-7.5299,-7.5298,0,-7.4369,-7.4521,-7.4505,-7.4608,-7.4775,-7.4743,-7.4908,-7.4926,-7.4971,-7.5074,-7.5009,-7.5107,-7.5074,-7.5169,-7.5153,-7.531,-7.5333,-7.5333,-7.5327,-7.5339,-7.5339,-7.5372,-7.5353,-7.5309,-7.5307,-7.5305,-7.5303,0,-7.4674,-7.467,-7.4847,-7.489,-7.4905,-7.5026,-7.5061,-7.5157,-7.5159,-7.529,-7.5319,-7.5321,-7.543,-7.5416,-7.5537,-7.5526,-7.5721,-7.5693,-7.5703,-7.5697,-7.5831,-7.5818,-7.627,-7.6327,-7.5925,-7.5929,-7.5932,0,-7.4874,-7.4989,-7.5046,-7.5112,-7.5146,-7.5252,-7.5314,-7.5287,-7.5354,-7.5426,-7.5513,-7.5616,-7.5698,-7.5874,-7.5885,-7.5977,-7.595,-7.6102,-7.5963,-7.5971,-7.5952,-7.5945,-7.5956,-7.6129,-7.6134,-7.6137,-7.614,0,-7.5229,-7.5222,-7.5315,-7.5408,-7.5485,-7.5556,-7.562,-7.5677,-7.5655,-7.5733,-7.5844,-7.5908,-7.6032,-7.6134,-7.6221,-7.6246,-7.619,-7.6184,-7.622,-7.6233,-7.6234,-7.6235,-7.5777,-7.6174,-7.617,-7.6168,-7.6166,-7.6165,-7.5488,-7.5586,-7.5641,-7.5747,-7.5793,-7.5855,-7.5947,-7.5961,-7.6054,-7.6155,-7.6132,-7.6257,-7.6309,-7.6419,-7.6455,-7.6551,-7.6495,-7.6547,-7.656,-7.6573,-7.6589,-7.6219,-7.6566,-7.6565,-7.6564,-7.6564,-7.6563,0,-7.5839,-7.5871,-7.5968,-7.6062,-7.6144,-7.6086,-7.6154,-7.6226,-7.6339,-7.6393,-7.6475,-7.6602,-7.6701,-7.672,-7.6814,-7.6888,-7.6864,-7.6913,-7.6907,-7.6914,-7.6633,-7.6593,-7.6931,-7.6931,-7.6931,-7.693,-7.693,-7.693,-7.6031,-7.6195,-7.6194,-7.6379,-7.6408,-7.6533,-7.6577,-7.6632,-7.6675,-7.6822,-7.6905,-7.6917,-7.6956,-7.7053,-7.714,-7.7143,-7.718,-7.724,-7.7233,-7.697,-7.6934,-7.6899,-7.686,-7.7249,-7.7249,-7.7505,-7.7507,-7.7509]}]]